Curacao Island, Netherlands

4:54 AM AST on February 26, 2017 (GMT -0400)
Willemstad-Hato International

Weather History for TNCC - November, 2012

Change the Weather History Date:

Monday, November 5, 2012

  Actual Average Record
Temperature  
Mean Temperature 82 °F -  
Max Temperature 84 °F 86 °F 91 °F (1998)
Min Temperature 78 °F 79 °F 76 °F (2013)
Cooling Degree Days 16    
Growing Degree Days 32 (Base 50)    
Moisture  
Dew Point 74 °F    
Average Humidity 78    
Maximum Humidity 89    
Minimum Humidity 68    
Precipitation  
Precipitation 0.00 in - - ()
Sea Level Pressure  
Sea Level Pressure 29.84 in    
Wind  
Wind Speed 11 mph ()    
Max Wind Speed 15 mph    
Max Gust Speed -    
Visibility 6.2 miles    
Events      
Averages and records for this station are not official NWS values.
T = Trace of Precipitation, MM = Missing Value Source: Averaged Metar Reports

Daily Weather History Graph

Daily Weather History Graph

Search for Another Location

Airport or City:

Trip Planner

Search our weather history database for the weather conditions in past years. The results will help you decide how hot, cold, wet, or windy it might be!

Date:

Astronomy

Nov. 05, 2012 Rise Set
Actual Time 6:29 AM AST 6:08 PM AST
Civil Twilight 6:08 AM AST 6:30 PM AST
Nautical Twilight 5:42 AM AST 6:56 PM AST
Astronomical Twilight 5:17 AM AST 7:21 PM AST
Moon 11:41 PM AST (11/5) 11:45 AM AST (11/5)
Length of Visible Light 12h 22m
Length of Day
11h 38m
Waning Gibbous, 63% of the Moon is Illuminated
Nov 5
Waning Gibbous
Nov 6
Last Quarter
Nov 13
New
Nov 20
First Quarter
Nov 28
Full

Hourly Weather History & Observations

Time (AST) Temp. Heat Index Dew Point Humidity Pressure Visibility Wind Dir Wind Speed Gust Speed Precip Events Conditions
12:00 AM 80.6 °F 86.2 °F 75.2 °F 84% 29.86 in 6.2 mi East 13.8 mph - N/A   Scattered Clouds
1:00 AM 80.6 °F 85.4 °F 73.4 °F 79% 29.86 in 6.2 mi East 12.7 mph - N/A   Scattered Clouds
2:00 AM 80 °F - 73 °F 75% 29.84 in 31 mi East 12.7 mph - -   Partly Cloudy
2:00 AM 80.6 °F 85.4 °F 73.4 °F 79% 29.83 in 6.2 mi East 11.5 mph - N/A   Scattered Clouds
3:00 AM 78.8 °F - 73.4 °F 83% 29.80 in 6.2 mi East 12.7 mph - N/A   Scattered Clouds
4:00 AM 78.8 °F - 73.4 °F 83% 29.80 in 6.2 mi East 12.7 mph - N/A   Scattered Clouds
5:00 AM 79 °F - 73 °F 78% 29.82 in 31 mi East 12.7 mph - -   Partly Cloudy
5:00 AM 78.8 °F - 73.4 °F 83% 29.80 in 6.2 mi East 12.7 mph - N/A   Scattered Clouds
6:00 AM 78.8 °F - 73.4 °F 83% 29.83 in 6.2 mi East 11.5 mph - N/A   Scattered Clouds
7:00 AM 78.8 °F - 73.4 °F 83% 29.86 in 6.2 mi ESE 10.4 mph - N/A   Scattered Clouds
8:00 AM 81 °F - 74 °F 74% 29.87 in 31 mi ESE 11.5 mph - -   Scattered Clouds
8:00 AM 82.4 °F 89.5 °F 75.2 °F 79% 29.86 in 6.2 mi ESE 11.5 mph - N/A   Partly Cloudy
9:00 AM 82.4 °F 88.2 °F 73.4 °F 74% 29.89 in 6.2 mi East 12.7 mph - N/A   Scattered Clouds
10:00 AM 84.2 °F 90.9 °F 73.4 °F 70% 29.89 in 6.2 mi East 13.8 mph - N/A   Scattered Clouds
11:00 AM 84 °F - 75 °F 68% 29.89 in 31 mi East 12.7 mph - -   Partly Cloudy
11:00 AM 84.2 °F 92.3 °F 75.2 °F 74% 29.89 in 6.2 mi East 12.7 mph - N/A   Scattered Clouds
12:00 PM 84.2 °F 92.3 °F 75.2 °F 74% 29.86 in 6.2 mi East 12.7 mph - N/A   Partly Cloudy
1:00 PM 84.2 °F 92.3 °F 75.2 °F 74% 29.86 in 6.2 mi East 12.7 mph - N/A   Scattered Clouds
2:00 PM 84.2 °F 90.9 °F 73.4 °F 70% 29.83 in 6.2 mi East 13.8 mph - N/A   Partly Cloudy
3:00 PM 84.2 °F 92.3 °F 75.2 °F 74% 29.80 in 6.2 mi East 13.8 mph - N/A   Partly Cloudy
4:00 PM 82.4 °F 88.2 °F 73.4 °F 74% 29.80 in 6.2 mi East 13.8 mph - N/A   Partly Cloudy
5:00 PM 82.4 °F 88.2 °F 73.4 °F 74% 29.80 in 6.2 mi ESE 12.7 mph - N/A   Partly Cloudy
6:00 PM 80.6 °F 86.2 °F 75.2 °F 84% 29.80 in 6.2 mi East 10.4 mph - N/A   Partly Cloudy
7:00 PM 80.6 °F 85.4 °F 73.4 °F 79% 29.80 in 6.2 mi East 11.5 mph - N/A   Partly Cloudy
8:00 PM 80.6 °F 85.4 °F 73.4 °F 79% 29.83 in 6.2 mi East 15.0 mph - N/A   Partly Cloudy
10:00 PM 80.6 °F 86.2 °F 75.2 °F 84% 29.86 in 6.2 mi ESE 11.5 mph - N/A   Partly Cloudy
11:00 PM 79 °F - 75 °F 83% 29.87 in 25 mi SE 8.1 mph - -   Scattered Clouds
11:00 PM 78.8 °F - 75.2 °F 89% 29.86 in 6.2 mi ESE 9.2 mph - N/A   Partly Cloudy